Location: Highland Meadows Observing Site
(48.4428°N, 114.5461°W)
Time: 01:59:16
(UTC-07:00)

Amateur Radio Satellites - All Passes

Search period start: 06 March 2015 01:29
Search period end: 07 March 2015 01:29
Location: Highland Meadows Observing Site, 48.4428°N, 114.5461°W

Satellite Date Start Highest point End Downlink Frequencies (MHz)
Time Altitude Azimuth
Oscar 19 06 Mar 01:32:13 01:36:43 31° 94° (E) 01:41:16 437.125/150
DUCHIFAT 1 06 Mar 01:35:26 01:37:09 12° 302° (WNW) 01:38:43 145.980
STARS 06 Mar 01:37:31 01:40:55 23° 63° (ENE) 01:44:24 437.465
KKS-1 06 Mar 01:39:01 01:43:00 33° 67° (ENE) 01:47:02 437.445
BEESAT 2 06 Mar 01:39:10 01:43:19 65° 235° (SW) 01:47:23 435.950
ITAMSAT 1 06 Mar 01:40:17 01:42:34 13° 85° (E) 01:45:07 435.822/435.867
SO-50 06 Mar 01:52:34 01:57:13 82° 129° (SE) 02:02:04 436.795
AIST 2 06 Mar 01:57:02 02:01:21 80° 50° (NE) 02:05:35 435.215
PCSat 06 Mar 02:03:37 02:05:40 12° 13° (NNE) 02:07:46 145.827
SWISSCUBE 06 Mar 02:20:18 02:24:13 24° 268° (W) 02:28:05 437.505
BEESAT 06 Mar 02:28:27 02:32:13 22° 269° (W) 02:35:53 436.000
YUBILEINY 06 Mar 02:32:32 02:40:58 47° 69° (ENE) 02:49:26 435.215
RS-15 06 Mar 02:41:54 02:52:03 39° 341° (NNW) 03:02:27 29.354- 29.394
BEESAT 3 06 Mar 02:48:58 02:51:10 14° 248° (WSW) 02:53:11 437.485
AUBIESAT-1 06 Mar 02:53:20 02:55:32 16° 56° (NE) 02:57:54 437.475
M-CUBED/EXP-1 PRIME 06 Mar 02:54:22 02:56:46 18° 57° (ENE) 02:59:21 437.505
ITUPSAT 1 06 Mar 03:00:24 03:02:28 12° 275° (W) 03:04:17 437.325
Oscar 19 06 Mar 03:11:24 03:16:13 41° 293° (WNW) 03:20:59 437.125/150
Gurwin Techsat 1B 06 Mar 03:11:45 03:17:03 62° 101° (E) 03:22:20 435.225
STARS 06 Mar 03:12:53 03:17:09 46° 261° (W) 03:21:27 437.465
KKS-1 06 Mar 03:15:41 03:19:41 30° 265° (W) 03:23:38 437.445
ITAMSAT 1 06 Mar 03:17:43 03:22:59 87° 104° (ESE) 03:28:13 435.822/435.867
MOZHAYETS 4 06 Mar 03:17:54 03:21:13 21° 62° (ENE) 03:24:39
HORYU 2 06 Mar 03:30:56 03:34:40 26° 94° (E) 03:38:26 437.375
SO-50 06 Mar 03:34:30 03:38:23 24° 329° (NNW) 03:42:19 436.795
AIST 2 06 Mar 03:37:03 03:39:26 14° 248° (WSW) 03:41:38 435.215
PCSat 06 Mar 03:46:20 03:50:59 28° 38° (NE) 03:55:41 145.827
JAS-2 06 Mar 03:48:15 03:54:03 24° 87° (E) 04:00:16 435.910
AO-7 06 Mar 04:06:09 04:13:35 36° 95° (E) 04:21:07 29.400- 29.500
AUBIESAT-1 06 Mar 04:26:52 04:30:07 44° 255° (WSW) 04:33:34 437.475
M-CUBED/EXP-1 PRIME 06 Mar 04:28:20 04:31:30 37° 257° (WSW) 04:34:52 437.505
YUBILEINY 06 Mar 04:29:34 04:37:55 48° 272° (W) 04:46:09 435.215
PRISM 06 Mar 04:37:12 04:38:24 11° 57° (ENE) 04:39:48 437.425
Gurwin Techsat 1B 06 Mar 04:52:29 04:56:41 23° 300° (WNW) 05:00:45 435.225
MOZHAYETS 4 06 Mar 04:53:38 04:58:07 55° 260° (W) 05:02:40
RS-15 06 Mar 04:57:55 05:08:01 37° 14° (NNE) 05:18:32 29.354- 29.394
ITAMSAT 1 06 Mar 04:58:29 05:01:53 17° 303° (WNW) 05:05:05 435.822/435.867
HORYU 2 06 Mar 05:07:18 05:11:27 38° 292° (WNW) 05:15:34 437.375
SO-50 06 Mar 05:18:36 05:20:38 12° 353° (N) 05:22:40 436.795
CUBESAT XI-V 06 Mar 05:26:42 05:30:51 32° 67° (ENE) 05:35:05 437.345
STRAND 1 06 Mar 05:27:35 05:31:43 26° 62° (ENE) 05:35:57 437.568
PCSat 06 Mar 05:29:30 05:34:54 68° 240° (WSW) 05:40:17 145.827
JAS-2 06 Mar 05:32:23 05:39:54 85° 286° (WNW) 05:47:47 435.910
Cubesat XI-IV 06 Mar 05:36:28 05:38:52 13° 84° (E) 05:41:32 437.490
CUTE-I 06 Mar 05:43:50 05:46:50 15° 86° (E) 05:50:02 437.470
AO-7 06 Mar 05:58:44 06:06:54 62° 296° (WNW) 06:15:00 29.400- 29.500
PRISM 06 Mar 06:09:06 06:13:16 83° 75° (ENE) 06:17:30 437.425
AIST 1 06 Mar 06:17:52 06:20:52 19° 87° (E) 06:24:02
GONETS M04 06 Mar 06:46:25 06:51:28 17° 48° (NE) 06:56:57
SO-50 06 Mar 07:00:21 07:03:11 15° 18° (NNE) 07:06:06 436.795
CUBESAT XI-V 06 Mar 07:03:59 07:08:17 34° 265° (W) 07:12:36 437.345
STRAND 1 06 Mar 07:05:37 07:10:39 53° 260° (W) 07:15:43 437.568
RS-15 06 Mar 07:11:27 07:22:46 70° 44° (NE) 07:34:38 29.354- 29.394
Cubesat XI-IV 06 Mar 07:14:29 07:19:55 85° 103° (ESE) 07:25:17 437.490
PCSat 06 Mar 07:15:49 07:17:27 11° 257° (WSW) 07:18:46 145.827
JAS-2 06 Mar 07:18:30 07:24:09 24° 305° (NW) 07:29:50 435.910
CUTE-I 06 Mar 07:22:18 07:27:43 85° 286° (WNW) 07:33:04 437.470
ISS 06 Mar 07:40:28 07:42:14 14° 137° (SE) 07:44:05 145.825
PRISM 06 Mar 07:48:13 07:49:27 11° 274° (W) 07:50:28 437.425
AO-7 06 Mar 07:52:47 07:58:15 19° 319° (NW) 08:03:29 29.400- 29.500
AIST 1 06 Mar 07:53:58 07:58:14 48° 285° (WNW) 08:02:32
BRITE-PL 06 Mar 08:07:00 08:09:39 16° 86° (E) 08:12:22 437.365/2234.400
O/OREOS (USA 219) 06 Mar 08:19:52 08:23:10 21° 103° (ESE) 08:26:38 437.305
COMPASS 1 06 Mar 08:28:01 08:28:57 11° 85° (E) 08:30:07 437.405
SO-50 06 Mar 08:40:24 08:45:03 40° 41° (NE) 08:49:43 436.795
GONETS M04 06 Mar 08:41:55 08:50:37 64° 75° (ENE) 08:59:20
HO-68 06 Mar 08:48:56 08:55:23 35° 94° (E) 09:01:54 435.675
Cubesat XI-IV 06 Mar 08:55:48 08:59:25 18° 303° (WNW) 09:02:52 437.490
SEEDS 06 Mar 08:59:18 09:02:55 27° 94° (E) 09:06:35 437.485
CUTE-I 06 Mar 09:03:50 09:07:06 16° 305° (NW) 09:10:11 437.470
QB50P1 06 Mar 09:05:09 09:05:58 11° 57° (ENE) 09:06:59 145.935-145.965
CANX-2 06 Mar 09:08:45 09:12:50 43° 98° (E) 09:16:55 2200.000
QB50P2 06 Mar 09:09:40 09:11:13 12° 58° (ENE) 09:12:56 145.880/145.840
ISS 06 Mar 09:15:01 09:18:13 71° 155° (SSE) 09:21:27 145.825
CUBEBUG 2 06 Mar 09:17:39 09:18:53 11° 86° (E) 09:20:19 437.445
DUCHIFAT 1 06 Mar 09:20:17 09:22:34 15° 60° (ENE) 09:24:58 145.980
CINEMA 3 06 Mar 09:22:30 09:25:44 22° 92° (E) 09:29:03 145.822/145.860
RS-15 06 Mar 09:24:16 09:34:49 44° 248° (WSW) 09:45:38 29.354- 29.394
CUTE 1.7 + AOD 2 06 Mar 09:26:39 09:30:53 60° 100° (E) 09:35:07 437.475
GOMX 1 06 Mar 09:28:19 09:32:41 66° 101° (ESE) 09:36:50 467.674
UNISAT 6 06 Mar 09:31:10 09:34:56 30° 67° (ENE) 09:38:42 437.425
FUNcube-1 06 Mar 09:36:31 09:38:08 12° 87° (E) 09:39:58 145.935
ZACube-1 06 Mar 09:39:01 09:40:58 13° 87° (E) 09:43:07 437.345
UKube-1 06 Mar 09:39:17 09:40:46 12° 86° (E) 09:42:29 .
POPSAT HIP 1 06 Mar 09:42:30 09:45:51 23° 64° (ENE) 09:49:16 437.405
DOVE 4 06 Mar 09:43:54 09:48:10 66° 101° (E) 09:52:17 437.250
POLYITAN 1 06 Mar 09:44:01 09:47:25 24° 65° (ENE) 09:50:54 437.675
BRITE-PL 06 Mar 09:44:17 09:48:47 59° 288° (WNW) 09:52:58 437.365/2234.400
TIGRISAT 06 Mar 09:53:46 09:57:56 47° 71° (ENE) 10:02:05 435.000
AAUSAT CUBESAT 2 06 Mar 09:55:15 09:59:28 74° 102° (ESE) 10:03:40 437.432
O/OREOS (USA 219) 06 Mar 09:57:47 10:02:16 53° 301° (WNW) 10:06:49 437.305
COMPASS 1 06 Mar 10:01:07 10:05:21 85° 284° (WNW) 10:09:35 437.405
NANOSAT C BR1 06 Mar 10:03:24 10:07:16 35° 68° (ENE) 10:11:11 145.865
UWE-3 06 Mar 10:06:09 10:09:49 29° 95° (E) 10:13:31 435.000/436.395/437.385
DANDE 06 Mar 10:06:12 10:07:13 12° 64° (ENE) 10:08:18 436.750
ANTELSAT 06 Mar 10:09:30 10:13:49 70° 74° (ENE) 10:18:06 437.575/2403.000
CUSAT 1 06 Mar 10:11:04 10:12:59 18° 69° (ENE) 10:14:58 437.405
Oscar 11 06 Mar 10:17:34 10:21:53 62° 101° (E) 10:26:11 145.826/435.025
SO-50 06 Mar 10:21:02 10:25:40 41° 240° (WSW) 10:30:15 436.795
BUGSAT 1 06 Mar 10:25:57 10:30:01 45° 70° (ENE) 10:34:07 437.445
SEEDS 06 Mar 10:34:58 10:38:48 33° 292° (WNW) 10:42:36 437.485
HO-68 06 Mar 10:36:27 10:43:27 56° 295° (WNW) 10:50:25 435.675
QB50P1 06 Mar 10:36:54 10:41:11 76° 74° (ENE) 10:45:28 145.935-145.965
DELFI C3 06 Mar 10:38:37 10:42:44 84° 103° (ESE) 10:46:51 145.870
GONETS M04 06 Mar 10:39:25 10:47:01 34° 276° (W) 10:54:29
QB50P2 06 Mar 10:42:14 10:46:31 87° 77° (ENE) 10:50:50 145.880/145.840
HUMSAT D 06 Mar 10:44:37 10:48:21 33° 96° (E) 10:52:07 437.325/437.525
CANX-2 06 Mar 10:45:12 10:48:33 22° 295° (WNW) 10:51:51 2200.000
DX 1 06 Mar 10:48:58 10:53:19 60° 101° (ESE) 10:57:37 434.975-435.025
ISS 06 Mar 10:51:39 10:54:48 47° 354° (N) 10:57:56 145.825
CUBEBUG 2 06 Mar 10:52:05 10:56:15 78° 285° (WNW) 11:00:26 437.445
DUCHIFAT 1 06 Mar 10:53:39 10:57:55 75° 257° (WSW) 11:02:12 145.980
CINEMA 3 06 Mar 10:59:17 11:03:10 38° 291° (WNW) 11:07:01 145.822/145.860
CUBEBUG 1 06 Mar 11:01:16 11:04:09 17° 89° (E) 11:07:10 437.445
CUTE 1.7 + AOD 2 06 Mar 11:03:36 11:06:27 17° 298° (WNW) 11:09:10 437.475
GOMX 1 06 Mar 11:07:41 11:10:20 16° 300° (WNW) 11:12:48 467.674
UNISAT 6 06 Mar 11:07:48 11:11:43 31° 264° (W) 11:15:35 437.425
FUNcube-1 06 Mar 11:10:55 11:15:05 73° 286° (WNW) 11:19:14 145.935
AISAT 06 Mar 11:11:13 11:15:30 45° 99° (E) 11:19:45 437.250
UKube-1 06 Mar 11:13:14 11:17:37 82° 284° (WNW) 11:21:57 .
ZACube-1 06 Mar 11:13:45 11:17:53 67° 286° (WNW) 11:22:02 437.345
POPSAT HIP 1 06 Mar 11:17:27 11:21:33 42° 262° (W) 11:25:38 437.405
Oscar 19 06 Mar 11:17:35 11:19:13 12° 53° (NE) 11:21:04 437.125/150
VELOX 1 06 Mar 11:18:42 11:23:03 52° 100° (E) 11:27:23 145.980
POLYITAN 1 06 Mar 11:19:08 11:23:12 40° 262° (W) 11:27:15 437.675
DOVE 4 06 Mar 11:22:58 11:25:29 15° 300° (WNW) 11:27:50 437.250
TIGRISAT 06 Mar 11:31:45 11:35:00 20° 269° (W) 11:38:07 435.000
AAUSAT CUBESAT 2 06 Mar 11:32:20 11:34:38 14° 300° (WNW) 11:36:47 437.432
50 SAT 06 Mar 11:33:11 11:37:10 78° 104° (ESE) 11:41:08 437.505
COMPASS 1 06 Mar 11:39:01 11:40:27 11° 302° (WNW) 11:41:41 437.405
NANOSAT C BR1 06 Mar 11:39:35 11:43:14 26° 266° (W) 11:46:50 145.865
O/OREOS (USA 219) 06 Mar 11:41:31 11:42:52 11° 324° (NW) 11:44:05 437.305
UWE-3 06 Mar 11:42:44 11:46:23 29° 293° (WNW) 11:49:58 435.000/436.395/437.385
DANDE 06 Mar 11:48:35 11:50:38 20° 266° (W) 11:52:40 436.750
ANTELSAT 06 Mar 11:48:53 11:51:10 14° 272° (W) 11:53:17 437.575/2403.000
ESTCUBE 1 06 Mar 11:49:50 11:54:21 56° 100° (E) 11:58:50 437.505/2401.250
CUSAT 1 06 Mar 11:54:26 11:55:42 13° 267° (W) 11:56:54 437.405
Oscar 11 06 Mar 11:54:48 11:57:40 17° 299° (WNW) 12:00:26 145.826/435.025
BUGSAT 1 06 Mar 12:02:28 12:05:45 21° 268° (W) 12:08:57 437.445
DELFI C3 06 Mar 12:15:38 12:17:23 12° 301° (WNW) 12:18:59 145.870
QB50P1 06 Mar 12:15:45 12:17:41 12° 273° (W) 12:19:25 145.935-145.965
HUMSAT D 06 Mar 12:20:35 12:24:04 26° 294° (WNW) 12:27:30 437.325/437.525
QB50P2 06 Mar 12:22:00 12:23:09 11° 275° (W) 12:24:04 145.880/145.840
HO-68 06 Mar 12:25:56 12:29:49 15° 316° (NW) 12:33:26 435.675
DX 1 06 Mar 12:26:10 12:29:11 18° 299° (WNW) 12:32:05 434.975-435.025
ISS 06 Mar 12:28:19 12:31:31 59° 13° (NNE) 12:34:44 145.825
CUBEBUG 2 06 Mar 12:31:56 12:32:19 10° 303° (WNW) 12:32:31 437.445
CUBEBUG 1 06 Mar 12:36:36 12:40:57 56° 289° (WNW) 12:45:14 437.445
TISAT 1 06 Mar 12:41:05 12:45:06 41° 98° (E) 12:49:06 437.305
AISAT 06 Mar 12:48:20 12:51:54 23° 297° (WNW) 12:55:20 437.250
UKube-1 06 Mar 12:51:28 12:53:07 12° 303° (WNW) 12:54:35 .
SPROUT 06 Mar 12:52:06 12:56:23 61° 101° (E) 13:00:36 437.525
Oscar 19 06 Mar 12:52:38 12:57:42 64° 71° (ENE) 13:02:48 437.125/150
VELOX 1 06 Mar 12:55:59 12:59:19 21° 298° (WNW) 13:02:34 145.980
Gurwin Techsat 1B 06 Mar 12:58:24 13:02:29 24° 60° (ENE) 13:06:41 435.225
ITAMSAT 1 06 Mar 13:01:01 13:05:31 31° 63° (ENE) 13:10:06 435.822/435.867
50 SAT 06 Mar 13:09:55 13:11:40 12° 300° (WNW) 13:13:16 437.505
ITUPSAT 1 06 Mar 13:16:49 13:20:05 18° 89° (E) 13:23:29 437.325
AO-7 06 Mar 13:20:06 13:25:38 21° 43° (NE) 13:31:25 29.400- 29.500
ESTCUBE 1 06 Mar 13:27:30 13:30:53 20° 298° (WNW) 13:34:10 437.505/2401.250
ISS 06 Mar 14:04:51 14:07:53 38° 213° (SSW) 14:10:55 145.825
JAS-2 06 Mar 14:07:30 14:10:37 15° 48° (NE) 14:14:09 435.910
SWISSCUBE 06 Mar 14:15:39 14:20:29 67° 102° (ESE) 14:25:16 437.505
TISAT 1 06 Mar 14:17:21 14:20:43 23° 296° (WNW) 14:23:59 437.305
BEESAT 06 Mar 14:23:28 14:28:18 74° 103° (ESE) 14:33:05 436.000
SPROUT 06 Mar 14:29:13 14:32:05 17° 299° (WNW) 14:34:48 437.525
HORYU 2 06 Mar 14:32:51 14:36:56 38° 68° (ENE) 14:41:05 437.375
Oscar 19 06 Mar 14:33:50 14:37:35 20° 271° (W) 14:41:11 437.125/150
Gurwin Techsat 1B 06 Mar 14:36:50 14:42:06 62° 259° (W) 14:47:24 435.225
ITAMSAT 1 06 Mar 14:39:54 14:44:53 44° 262° (W) 14:49:54 435.822/435.867
ITUPSAT 1 06 Mar 14:53:41 14:58:28 62° 289° (WNW) 15:03:14 437.325
STARS 06 Mar 14:59:20 15:02:54 24° 93° (E) 15:06:30 437.465
KKS-1 06 Mar 15:02:35 15:06:45 38° 97° (E) 15:10:55 437.445
AO-7 06 Mar 15:08:53 15:17:06 67° 65° (ENE) 15:25:22 29.400- 29.500
YUBILEINY 06 Mar 15:38:18 15:46:24 46° 88° (E) 15:54:41 435.215
JAS-2 06 Mar 15:48:43 15:54:24 65° 70° (ENE) 16:00:55 435.910
SWISSCUBE 06 Mar 15:54:29 15:57:54 19° 300° (WNW) 16:01:12 437.505
BEESAT 06 Mar 16:02:26 16:05:39 18° 301° (WNW) 16:08:45 436.000
M-CUBED/EXP-1 PRIME 06 Mar 16:07:52 16:08:37 10° 92° (E) 16:09:38 437.505
HORYU 2 06 Mar 16:10:01 16:13:44 26° 266° (W) 16:17:26 437.375
ITUPSAT 1 06 Mar 16:34:24 16:35:31 11° 307° (NW) 16:36:25 437.325
STARS 06 Mar 16:35:25 16:39:33 40° 291° (WNW) 16:43:37 437.465
KKS-1 06 Mar 16:39:32 16:43:17 26° 295° (WNW) 16:46:56 437.445
BEESAT 3 06 Mar 16:44:12 16:48:05 43° 121° (ESE) 16:52:03 437.485
MOZHAYETS 4 06 Mar 16:45:15 16:49:11 27° 93° (E) 16:53:11
O/OREOS (USA 219) 06 Mar 16:46:39 16:49:02 14° 40° (NE) 16:51:33 437.305
Cubesat XI-IV 06 Mar 17:01:16 17:05:58 33° 64° (ENE) 17:10:46 437.490
AO-7 06 Mar 17:03:08 17:10:33 33° 266° (W) 17:17:49 29.400- 29.500
CUTE-I 06 Mar 17:08:43 17:13:35 37° 65° (ENE) 17:18:31 437.470
BEESAT 2 06 Mar 17:14:27 17:18:34 72° 126° (SE) 17:22:46 435.950
VERMONT LUNAR 06 Mar 17:20:27 17:22:57 18° 168° (SSE) 17:25:27 437.305
YUBILEINY 06 Mar 17:34:52 17:43:17 48° 290° (WNW) 17:51:45 435.215
JAS-2 06 Mar 17:35:37 17:40:17 24° 274° (W) 17:45:13 435.910
AIST 2 06 Mar 17:36:40 17:40:47 49° 122° (ESE) 17:44:59 435.215
AUBIESAT-1 06 Mar 17:37:59 17:42:17 70° 107° (ESE) 17:46:55 437.475
M-CUBED/EXP-1 PRIME 06 Mar 17:39:51 17:44:10 81° 110° (ESE) 17:48:48 437.505
HO-68 06 Mar 17:40:26 17:42:03 11° 38° (NE) 17:43:58 435.675
PHONESAT 2.4 06 Mar 17:56:10 17:58:46 19° 167° (SSE) 18:01:24 2401.200-2431.200
AIST 1 06 Mar 17:57:08 18:01:33 62° 77° (ENE) 18:05:53
MOZHAYETS 4 06 Mar 18:22:13 18:26:34 39° 291° (WNW) 18:30:52
BEESAT 3 06 Mar 18:22:38 18:26:19 30° 321° (NW) 18:30:01 437.485
O/OREOS (USA 219) 06 Mar 18:24:44 18:29:22 75° 63° (ENE) 18:33:56 437.305
Cubesat XI-IV 06 Mar 18:40:52 18:45:59 42° 262° (W) 18:51:07 437.490
CUTE-I 06 Mar 18:48:41 18:53:41 37° 264° (W) 18:58:40 437.470
BEESAT 2 06 Mar 18:53:54 18:57:12 22° 326° (NNW) 19:00:29 435.950
CUBESAT XI-V 06 Mar 18:56:29 19:01:03 46° 98° (E) 19:05:35 437.345
VERMONT LUNAR 06 Mar 18:57:27 19:00:13 22° 185° (S) 19:02:57 437.305
GOMX 1 06 Mar 19:03:33 19:06:52 18° 61° (ENE) 19:10:11 467.674
STRAND 1 06 Mar 19:12:18 19:17:09 39° 97° (E) 19:21:58 437.568
AUBIESAT-1 06 Mar 19:13:52 19:16:48 18° 303° (WNW) 19:19:45 437.475
AIST 2 06 Mar 19:15:50 19:19:37 29° 322° (NW) 19:23:24 435.215
M-CUBED/EXP-1 PRIME 06 Mar 19:16:02 19:18:41 16° 305° (NW) 19:21:19 437.505
DOVE 4 06 Mar 19:17:24 19:20:18 16° 61° (ENE) 19:23:16 437.250
AAUSAT CUBESAT 2 06 Mar 19:18:04 19:18:55 11° 58° (ENE) 19:19:57 437.432
BRITE-PL 06 Mar 19:20:00 19:24:52 34° 67° (ENE) 19:29:33 437.365/2234.400
HO-68 06 Mar 19:21:30 19:28:00 40° 60° (ENE) 19:34:36 435.675
COMPASS 1 06 Mar 19:23:01 19:25:01 14° 60° (ENE) 19:27:11 437.405
PRISM 06 Mar 19:23:29 19:27:45 82° 104° (ESE) 19:31:59 437.425
PHONESAT 2.4 06 Mar 19:33:38 19:36:35 23° 183° (S) 19:39:32 2401.200-2431.200
AIST 1 06 Mar 19:36:08 19:38:45 15° 275° (W) 19:41:11
YUBILEINY 06 Mar 19:39:26 19:43:07 12° 318° (NW) 19:46:20 435.215
Oscar 11 06 Mar 19:43:42 19:44:39 11° 57° (ENE) 19:45:47 145.826/435.025
SEEDS 06 Mar 19:55:14 19:58:54 31° 68° (ENE) 20:02:38 437.485
GONETS M04 06 Mar 19:57:05 20:00:38 14° 72° (ENE) 20:04:44
DELFI C3 06 Mar 19:58:34 19:59:30 11° 58° (ENE) 20:00:37 145.870
BEESAT 3 06 Mar 20:04:48 20:05:43 11° 344° (NNW) 20:06:34 437.485
CANX-2 06 Mar 20:05:22 20:09:25 49° 71° (ENE) 20:13:32 2200.000
O/OREOS (USA 219) 06 Mar 20:05:41 20:08:15 14° 260° (W) 20:10:37 437.305
PCSat 06 Mar 20:14:38 20:19:51 52° 118° (ESE) 20:25:08 145.827
DX 1 06 Mar 20:15:05 20:16:49 12° 57° (ENE) 20:18:42 434.975-435.025
CUBEBUG 2 06 Mar 20:19:06 20:21:58 18° 63° (ENE) 20:24:54 437.445
CUTE 1.7 + AOD 2 06 Mar 20:23:08 20:27:20 69° 73° (ENE) 20:31:32 437.475
CINEMA 3 06 Mar 20:27:35 20:31:46 35° 69° (ENE) 20:35:50 145.822/145.860
CUBESAT XI-V 06 Mar 20:34:25 20:38:17 25° 296° (WNW) 20:42:01 437.345
VERMONT LUNAR 06 Mar 20:35:49 20:37:24 12° 201° (SSW) 20:38:56 437.305
FUNcube-1 06 Mar 20:35:51 20:38:37 18° 63° (ENE) 20:41:29 145.935
UKube-1 06 Mar 20:37:21 20:40:17 18° 61° (ENE) 20:43:20 .
ZACube-1 06 Mar 20:38:37 20:41:35 19° 63° (ENE) 20:44:36 437.345
GOMX 1 06 Mar 20:39:17 20:44:33 78° 256° (WSW) 20:49:31 467.674
AISAT 06 Mar 20:40:57 20:41:14 10° 55° (NE) 20:41:44 437.250
VELOX 1 06 Mar 20:47:08 20:48:28 11° 56° (NE) 20:49:59 145.980
AAUSAT CUBESAT 2 06 Mar 20:49:47 20:53:55 82° 76° (ENE) 20:58:06 437.432
STRAND 1 06 Mar 20:51:41 20:56:17 33° 296° (WNW) 21:00:49 437.568
DOVE 4 06 Mar 20:52:35 20:57:37 80° 256° (WSW) 21:02:22 437.250
COMPASS 1 06 Mar 20:56:04 21:00:13 76° 257° (WSW) 21:04:24 437.405
BRITE-PL 06 Mar 20:58:07 21:03:20 41° 264° (W) 21:08:16 437.365/2234.400
AIST 2 06 Mar 20:58:27 20:59:37 11° 345° (NNW) 21:00:43 435.215
PRISM 06 Mar 21:00:34 21:02:42 13° 301° (WNW) 21:04:42 437.425
UWE-3 06 Mar 21:06:56 21:10:59 40° 70° (ENE) 21:15:00 435.000/436.395/437.385
HO-68 06 Mar 21:08:43 21:15:39 50° 261° (W) 21:22:36 435.675
PHONESAT 2.4 06 Mar 21:12:18 21:14:20 14° 200° (SSW) 21:16:19 2401.200-2431.200
Oscar 11 06 Mar 21:15:52 21:20:09 77° 75° (ENE) 21:24:28 145.826/435.025
ESTCUBE 1 06 Mar 21:19:39 21:21:22 12° 57° (ENE) 21:23:17 437.505/2401.250
DELFI C3 06 Mar 21:30:03 21:34:05 86° 77° (ENE) 21:38:10 145.870
SEEDS 06 Mar 21:31:05 21:34:45 28° 266° (W) 21:38:24 437.485
HUMSAT D 06 Mar 21:40:14 21:44:06 39° 70° (ENE) 21:47:58 437.325/437.525
CANX-2 06 Mar 21:42:43 21:45:42 18° 270° (W) 21:48:36 2200.000
RS-15 06 Mar 21:43:02 21:50:52 25° 103° (ESE) 21:59:14 29.354- 29.394
GONETS M04 06 Mar 21:47:20 21:55:49 63° 93° (E) 22:04:24
DX 1 06 Mar 21:48:02 21:52:26 85° 71° (ENE) 21:56:52 434.975-435.025
CUBEBUG 2 06 Mar 21:53:58 21:58:21 59° 259° (W) 22:02:36 437.445
PCSat 06 Mar 21:58:34 22:03:31 34° 318° (NW) 22:08:28 145.827
ANTELSAT 06 Mar 22:00:15 22:01:06 11° 85° (E) 22:02:13 437.575/2403.000
CUBEBUG 1 06 Mar 22:00:57 22:04:32 25° 64° (ENE) 22:08:10 437.445
CUTE 1.7 + AOD 2 06 Mar 22:01:40 22:03:49 13° 273° (W) 22:05:47 437.475
CINEMA 3 06 Mar 22:04:58 22:09:02 29° 265° (W) 22:12:56 145.822/145.860
FUNcube-1 06 Mar 22:10:23 22:14:38 58° 260° (W) 22:18:49 145.935
UKube-1 06 Mar 22:11:45 22:16:04 59° 259° (W) 22:20:24 .
AISAT 06 Mar 22:12:37 22:17:04 66° 73° (ENE) 22:21:33 437.250
ZACube-1 06 Mar 22:13:26 22:17:40 53° 260° (W) 22:21:49 437.345
SPROUT 06 Mar 22:17:41 22:18:39 11° 57° (ENE) 22:19:48 437.525
VELOX 1 06 Mar 22:19:51 22:24:20 75° 73° (ENE) 22:28:50 145.980
GOMX 1 06 Mar 22:21:46 22:23:31 11° 276° (W) 22:24:56 467.674
50 SAT 06 Mar 22:23:14 22:27:12 78° 73° (ENE) 22:31:10 437.505
QB50P2 06 Mar 22:26:25 22:27:31 11° 85° (E) 22:28:50 145.880/145.840
AAUSAT CUBESAT 2 06 Mar 22:29:02 22:30:15 11° 275° (W) 22:31:14 437.432
DOVE 4 06 Mar 22:34:44 22:36:10 11° 276° (W) 22:37:18 437.250
DUCHIFAT 1 06 Mar 22:36:29 22:38:33 14° 87° (E) 22:40:49 145.980
UWE-3 06 Mar 22:44:12 22:47:44 23° 268° (W) 22:51:07 435.000/436.395/437.385
ESTCUBE 1 06 Mar 22:53:02 22:57:35 80° 73° (ENE) 23:02:09 437.505/2401.250
Oscar 11 06 Mar 22:55:04 22:56:59 12° 274° (W) 22:58:41 145.826/435.025
UNISAT 6 06 Mar 22:55:26 22:59:28 37° 97° (E) 23:03:33 437.425
POPSAT HIP 1 06 Mar 22:59:23 23:02:47 23° 93° (E) 23:06:13 437.405
POLYITAN 1 06 Mar 23:01:14 23:04:43 25° 93° (E) 23:08:15 437.675
HUMSAT D 06 Mar 23:16:44 23:20:03 22° 268° (W) 23:23:18 437.325/437.525
TIGRISAT 06 Mar 23:18:04 23:22:19 62° 101° (E) 23:26:39 435.000
NANOSAT C BR1 06 Mar 23:20:19 23:24:15 37° 97° (E) 23:28:12 145.865
DANDE 06 Mar 23:20:41 23:25:29 27° 96° (E) 23:29:21 436.750
BEESAT 3 06 Mar 23:22:25 23:25:24 19° 31° (NNE) 23:28:26 437.485
CUSAT 1 06 Mar 23:22:47 23:27:28 32° 97° (E) 23:31:12 437.405
DX 1 06 Mar 23:27:44 23:29:23 12° 274° (W) 23:30:50 434.975-435.025
ANTELSAT 06 Mar 23:34:17 23:38:38 88° 285° (WNW) 23:43:01 437.575/2403.000
CUBEBUG 1 06 Mar 23:36:28 23:40:43 42° 262° (W) 23:44:59 437.445
TISAT 1 06 Mar 23:36:52 23:41:00 52° 72° (ENE) 23:45:12 437.305
BUGSAT 1 06 Mar 23:40:03 23:44:03 45° 99° (E) 23:48:00 437.445
GONETS M04 06 Mar 23:45:30 23:53:20 35° 296° (WNW) 00:01:05
PCSat 06 Mar 23:46:04 23:48:40 13° 343° (NNW) 23:51:11 145.827
SPROUT 06 Mar 23:49:43 23:54:03 76° 75° (ENE) 23:58:24 437.525
SWISSCUBE 06 Mar 23:50:14 23:53:22 18° 59° (ENE) 23:56:38 437.505
RS-15 06 Mar 23:50:51 00:01:45 84° 125° (SE) 00:12:56 29.354- 29.394
AISAT 06 Mar 23:51:24 23:54:12 16° 272° (W) 23:56:51 437.250
BEESAT 2 06 Mar 23:53:04 23:56:36 26° 36° (NE) 00:00:08 435.950
QB50P1 06 Mar 23:54:17 23:58:33 85° 103° (ESE) 00:02:46 145.935-145.965
BEESAT 06 Mar 23:57:45 00:01:03 19° 60° (ENE) 00:04:29 436.000
VELOX 1 06 Mar 23:59:09 00:01:32 14° 273° (W) 00:03:43 145.980
QB50P2 06 Mar 23:59:52 00:04:07 83° 285° (WNW) 00:08:21 145.880/145.840
50 SAT 07 Mar 00:01:54 00:02:48 10° 274° (W) 00:03:30 437.505
DUCHIFAT 1 07 Mar 00:10:44 00:14:57 67° 287° (WNW) 00:19:06 145.980
AIST 2 07 Mar 00:17:01 00:20:21 21° 33° (NNE) 00:23:42 435.215
ITUPSAT 1 07 Mar 00:27:02 00:31:16 32° 66° (ENE) 00:35:35 437.325
UNISAT 6 07 Mar 00:32:33 00:36:09 26° 294° (WNW) 00:39:42 437.425
ESTCUBE 1 07 Mar 00:32:57 00:35:08 13° 274° (W) 00:37:08 437.505/2401.250
POPSAT HIP 1 07 Mar 00:34:54 00:38:50 38° 291° (WNW) 00:42:44 437.405
POLYITAN 1 07 Mar 00:36:52 00:40:46 36° 292° (WNW) 00:44:37 437.675
SO-50 07 Mar 00:39:13 00:43:09 28° 116° (ESE) 00:47:15 436.795
TIGRISAT 07 Mar 00:55:54 00:58:43 17° 299° (WNW) 01:01:26 435.000
NANOSAT C BR1 07 Mar 00:56:30 00:59:59 25° 295° (WNW) 01:03:23 145.865
BEESAT 3 07 Mar 00:59:55 01:04:05 90° 347° (NNW) 01:08:12 437.485
Oscar 19 07 Mar 01:01:28 01:04:39 17° 87° (E) 01:08:02 437.125/150
DANDE 07 Mar 01:03:21 01:08:47 40° 285° (WNW) 01:12:53 436.750
CUSAT 1 07 Mar 01:05:50 01:10:19 29° 287° (WNW) 01:13:49 437.405
ANTELSAT 07 Mar 01:13:03 01:14:51 12° 302° (WNW) 01:16:31 437.575/2403.000
TISAT 1 07 Mar 01:14:08 01:17:10 18° 270° (W) 01:20:05 437.305
BUGSAT 1 07 Mar 01:16:09 01:19:18 21° 297° (WNW) 01:22:19 437.445
